Binghamton, NY

8:56 PM EDT on October 16, 2019 (GMT -0400)
Binghamton Regional-Link

Weather History for KBGM - August, 2019

Change the Weather History Date:

Friday, August 23, 2019

  Actual Average Record
Temperature  
Mean Temperature 62 °F 67 °F  
Max Temperature 69 °F 76 °F 85 °F (1974)
Min Temperature 54 °F 58 °F 43 °F (1952)
Degree Days  
Heating Degree Days 3 1  
Month to date heating degree days 7 23  
Since 1 June heating degree days 101 138  
Since 1 July heating degree days 7 47  
Cooling Degree Days 0 3  
Month to date cooling degree days 100 88  
Year to date cooling degree days 360 323  
Since 1 June cooling degree days 353 300  
Growing Degree Days 12 (Base 50)    
Moisture  
Dew Point 50 °F    
Average Humidity 69    
Maximum Humidity 86    
Minimum Humidity 52    
Precipitation  
Precipitation 0.00 in 0.11 in 1.05 in (2010)
Month to date precipitation 3.19 2.58  
Year to date precipitation 28.57 25.34  
Snow  
Snow 0.00 in 0.00 in T in (1989)
Month to date snowfall 0.0 0.0  
Since 1 June snowfall 0.0 0.0  
Since 1 July snowfall 0.0 0.0  
Snow Depth 0.00 in    
Sea Level Pressure  
Sea Level Pressure 30.06 in    
Wind  
Wind Speed 8 mph (NNW)    
Max Wind Speed 16 mph    
Max Gust Speed 22 mph    
Visibility 10 miles    
Events      
T = Trace of Precipitation, MM = Missing Value Source: NWS Daily Summary

Daily Weather History Graph

Daily Weather History Graph

Search for Another Location

Airport or City:

Astronomy

Aug. 23, 2019 Rise Set
Actual Time 6:19 AM EDT 7:52 PM EDT
Civil Twilight 5:50 AM EDT 8:22 PM EDT
Nautical Twilight 5:14 AM EDT 8:57 PM EDT
Astronomical Twilight 4:36 AM EDT 9:35 PM EDT
Moon No Moon Rise 2:02 PM EDT (8/23)
Length of Visible Light 14h 32m
Length of Day
13h 33m
Waning Gibbous, 50% of the Moon is Illuminated
Aug 23
Waning Gibbous
Aug 30
New
Sep 5
First Quarter
Sep 14
Full
Sep 21
Last Quarter

Hourly Weather History & Observations

Time (EDT) Temp. Dew Point Humidity Pressure Visibility Wind Dir Wind Speed Gust Speed Precip Events Conditions
12:53 AM 59.0 °F 51.1 °F 75% 30.00 in 10.0 mi West 3.5 mph - N/A   Clear
1:53 AM 57.9 °F 52.0 °F 81% 30.00 in 10.0 mi NW 5.8 mph - N/A   Clear
2:53 AM 59.0 °F 51.1 °F 75% 29.99 in 10.0 mi NW 5.8 mph - N/A   Clear
3:53 AM 57.9 °F 50.0 °F 75% 30.00 in 10.0 mi WNW 3.5 mph - N/A   Clear
4:53 AM 57.0 °F 50.0 °F 77% 30.01 in 10.0 mi WNW 3.5 mph - N/A   Clear
5:53 AM 57.9 °F 50.0 °F 75% 30.01 in 10.0 mi NW 5.8 mph - N/A   Clear
6:53 AM 55.0 °F 51.1 °F 86% 30.04 in 10.0 mi WNW 5.8 mph - N/A   Clear
7:53 AM 57.0 °F 51.1 °F 81% 30.05 in 10.0 mi NW 4.6 mph - N/A   Clear
8:53 AM 61.0 °F 53.1 °F 75% 30.04 in 10.0 mi North 8.1 mph - N/A   Clear
9:53 AM 64.0 °F 54.0 °F 70% 30.06 in 10.0 mi Variable 3.5 mph - N/A   Clear
10:53 AM 66.9 °F 52.0 °F 59% 30.07 in 10.0 mi NNE 11.5 mph - N/A   Clear
11:53 AM 66.0 °F 51.1 °F 59% 30.07 in 10.0 mi North 12.7 mph - N/A   Overcast
12:53 PM 68.0 °F 50.0 °F 52% 30.06 in 10.0 mi North 12.7 mph - N/A   Scattered Clouds
1:53 PM 66.9 °F 50.0 °F 54% 30.07 in 10.0 mi North 11.5 mph - N/A   Mostly Cloudy
2:53 PM 66.9 °F 50.0 °F 54% 30.07 in 10.0 mi North 12.7 mph - N/A   Partly Cloudy
4:53 PM 68.0 °F 50.0 °F 52% 30.06 in 10.0 mi NNE 11.5 mph - N/A   Clear
5:53 PM 66.9 °F 48.9 °F 52% 30.08 in 10.0 mi North 12.7 mph - N/A   Mostly Cloudy
6:53 PM 64.9 °F 48.9 °F 56% 30.09 in 10.0 mi North 9.2 mph - N/A   Partly Cloudy
7:53 PM 61.0 °F 48.0 °F 62% 30.10 in 10.0 mi North 9.2 mph - N/A   Clear
8:53 PM 60.1 °F 48.0 °F 64% 30.12 in 10.0 mi North 10.4 mph - N/A   Clear
9:53 PM 57.0 °F 48.0 °F 72% 30.13 in 10.0 mi North 5.8 mph - N/A   Clear
10:53 PM 57.0 °F 48.9 °F 74% 30.13 in 10.0 mi North 10.4 mph - N/A   Clear
11:53 PM 55.9 °F 50.0 °F 80% 30.15 in 10.0 mi NNW 4.6 mph - N/A   Clear